ACA119 CYYZ-CYVR

Flight info

Callsign ACA119
Flight time N/A
Altitude 32000
Route AVSEP7 MUSIT DCT SSM DCT YQT/N0459F340 DCT GABOV DCT SEGAP DCT WALSH DCT DESNU Q888 BOOTH CANUC6
Aircraft A321/M-SDE3FGHIRWY/LB1

Departure

Time 2026-05-07 17:05
Airport Toronto Pearson International Airport (CYYZ)

Arrival

Time N/A
Airport Vancouver International Airport (CYVR)
Time Latitude Longitude Altitude Speed Heading
2026-05-07 16:33 43.68030 -79.61715 562 ft 0 kts 136°
2026-05-07 16:47 43.68037 -79.61724 570 ft 3 kts 138°
2026-05-07 16:47 43.68052 -79.61742 564 ft 3 kts 144°
2026-05-07 16:48 43.68069 -79.61757 565 ft 3 kts 155°
2026-05-07 16:48 43.68087 -79.61766 568 ft 3 kts 179°
2026-05-07 16:48 43.68103 -79.61762 563 ft 2 kts 222°
2026-05-07 16:48 43.68105 -79.61759 564 ft 0 kts 226°
2026-05-07 16:54 43.68095 -79.61775 569 ft 6 kts 226°
2026-05-07 16:54 43.68044 -79.61848 566 ft 14 kts 226°
2026-05-07 16:55 43.67992 -79.61946 561 ft 12 kts 246°
2026-05-07 16:55 43.67958 -79.62042 561 ft 10 kts 228°
2026-05-07 16:55 43.67904 -79.62120 570 ft 11 kts 226°
2026-05-07 16:55 43.67841 -79.62131 570 ft 9 kts 145°
2026-05-07 16:56 43.67798 -79.62074 571 ft 8 kts 136°
2026-05-07 16:56 43.67760 -79.62025 566 ft 9 kts 136°
2026-05-07 16:56 43.67627 -79.61853 569 ft 13 kts 137°
2026-05-07 16:57 43.67561 -79.61768 567 ft 16 kts 137°
2026-05-07 16:57 43.67471 -79.61650 565 ft 18 kts 136°
2026-05-07 16:57 43.67382 -79.61532 570 ft 17 kts 136°
2026-05-07 16:57 43.67295 -79.61419 565 ft 17 kts 137°
2026-05-07 16:58 43.67214 -79.61314 567 ft 15 kts 137°
2026-05-07 16:58 43.67142 -79.61216 572 ft 15 kts 122°
2026-05-07 16:58 43.67184 -79.61103 558 ft 15 kts 46°
2026-05-07 16:58 43.67254 -79.61003 557 ft 14 kts 46°
2026-05-07 16:59 43.67315 -79.60915 557 ft 12 kts 46°
2026-05-07 16:59 43.67367 -79.60840 560 ft 10 kts 46°
2026-05-07 16:59 43.67411 -79.60776 557 ft 8 kts 46°
2026-05-07 16:59 43.67443 -79.60729 563 ft 7 kts 46°
2026-05-07 17:00 43.67472 -79.60687 563 ft 5 kts 46°
2026-05-07 17:00 43.67515 -79.60624 567 ft 13 kts 46°
2026-05-07 17:00 43.67578 -79.60532 565 ft 12 kts 47°
2026-05-07 17:00 43.67629 -79.60457 566 ft 9 kts 47°
2026-05-07 17:01 43.67666 -79.60402 564 ft 7 kts 47°
2026-05-07 17:01 43.67695 -79.60360 564 ft 6 kts 47°
2026-05-07 17:01 43.67720 -79.60323 562 ft 5 kts 45°
2026-05-07 17:01 43.67768 -79.60256 562 ft 14 kts 45°
2026-05-07 17:02 43.67830 -79.60168 563 ft 12 kts 46°
2026-05-07 17:02 43.67885 -79.60088 564 ft 13 kts 46°
2026-05-07 17:02 43.67945 -79.60000 566 ft 12 kts 46°
2026-05-07 17:02 43.67994 -79.59929 563 ft 9 kts 47°
2026-05-07 17:03 43.68029 -79.59877 561 ft 7 kts 51°
2026-05-07 17:03 43.68012 -79.59799 569 ft 11 kts 132°
2026-05-07 17:03 43.67964 -79.59735 560 ft 8 kts 136°
2026-05-07 17:03 43.67920 -79.59713 565 ft 6 kts 189°
2026-05-07 17:04 43.67889 -79.59748 565 ft 6 kts 228°
2026-05-07 17:04 43.67797 -79.59881 566 ft 47 kts 226°
2026-05-07 17:04 43.67415 -79.60431 566 ft 110 kts 226°
2026-05-07 17:04 43.66768 -79.61368 574 ft 157 kts 227°
2026-05-07 17:05 43.65985 -79.62528 1049 ft 164 kts 227°
2026-05-07 17:05 43.65175 -79.63668 1674 ft 168 kts 227°
2026-05-07 17:05 43.64389 -79.64855 2349 ft 169 kts 241°
2026-05-07 17:05 43.64091 -79.66466 2580 ft 186 kts 277°
2026-05-07 17:06 43.64677 -79.68128 2743 ft 207 kts 309°
2026-05-07 17:06 43.65710 -79.69682 2895 ft 233 kts 311°
2026-05-07 17:06 43.66857 -79.71370 3384 ft 246 kts 311°
2026-05-07 17:06 43.68045 -79.73109 4084 ft 251 kts 311°
2026-05-07 17:07 43.69246 -79.74868 4854 ft 253 kts 311°
2026-05-07 17:07 43.70454 -79.76643 5618 ft 254 kts 311°
2026-05-07 17:07 43.71255 -79.77824 6129 ft 255 kts 311°
2026-05-07 17:07 43.72471 -79.79621 6837 ft 257 kts 311°
2026-05-07 17:08 43.73700 -79.81443 7492 ft 261 kts 310°
2026-05-07 17:08 43.74945 -79.83290 8149 ft 264 kts 310°
2026-05-07 17:08 43.76201 -79.85156 8864 ft 267 kts 310°
2026-05-07 17:08 43.77471 -79.87047 9565 ft 269 kts 310°
2026-05-07 17:09 43.78749 -79.88954 10243 ft 273 kts 310°
2026-05-07 17:09 43.80087 -79.90959 10429 ft 294 kts 310°
2026-05-07 17:09 43.81523 -79.93117 10559 ft 315 kts 310°
2026-05-07 17:09 43.83051 -79.95411 10736 ft 332 kts 310°
2026-05-07 17:10 43.84635 -79.97782 11227 ft 337 kts 310°
2026-05-07 17:10 43.86216 -80.00145 11836 ft 340 kts 310°
2026-05-07 17:10 43.87829 -80.02557 12488 ft 342 kts 310°
2026-05-07 17:10 43.89447 -80.04979 13154 ft 343 kts 310°
2026-05-07 17:11 43.91075 -80.07420 13776 ft 345 kts 310°
2026-05-07 17:11 43.92710 -80.09873 14325 ft 347 kts 309°
2026-05-07 17:11 43.94251 -80.12445 14855 ft 347 kts 304°
2026-05-07 17:11 43.95704 -80.15128 15397 ft 348 kts 303°
2026-05-07 17:12 43.97161 -80.17822 15935 ft 350 kts 303°
2026-05-07 17:12 43.98626 -80.20530 16459 ft 352 kts 303°
2026-05-07 17:12 44.00097 -80.23254 16977 ft 353 kts 303°
2026-05-07 17:12 44.01575 -80.25997 17517 ft 356 kts 303°
2026-05-07 17:13 44.03064 -80.28757 18003 ft 358 kts 303°
2026-05-07 17:13 44.04563 -80.31531 18468 ft 360 kts 303°
2026-05-07 17:13 44.06070 -80.34321 18892 ft 362 kts 303°
2026-05-07 17:13 44.07584 -80.37127 19316 ft 364 kts 303°
2026-05-07 17:14 44.09109 -80.39958 19719 ft 366 kts 303°
2026-05-07 17:14 44.10643 -80.42796 20130 ft 368 kts 303°
2026-05-07 17:14 44.12184 -80.45656 20535 ft 370 kts 302°
2026-05-07 17:14 44.13744 -80.48528 20933 ft 374 kts 305°
2026-05-07 17:15 44.15506 -80.51222 21321 ft 378 kts 308°
2026-05-07 17:15 44.17310 -80.53904 21726 ft 380 kts 308°
2026-05-07 17:15 44.19128 -80.56609 22091 ft 383 kts 308°
2026-05-07 17:15 44.20954 -80.59326 22481 ft 385 kts 308°
2026-05-07 17:16 44.22767 -80.62029 22860 ft 388 kts 308°
2026-05-07 17:16 44.24610 -80.64779 23270 ft 390 kts 308°
2026-05-07 17:16 44.26468 -80.67555 23625 ft 392 kts 308°
2026-05-07 17:16 44.28329 -80.70342 23925 ft 394 kts 308°
2026-05-07 17:17 44.30203 -80.73148 24235 ft 396 kts 308°
2026-05-07 17:17 44.32083 -80.75963 24537 ft 397 kts 308°
2026-05-07 17:17 44.33975 -80.78795 24838 ft 399 kts 308°
2026-05-07 17:17 44.35868 -80.81637 25138 ft 401 kts 308°
2026-05-07 17:18 44.37772 -80.84501 25437 ft 403 kts 308°
2026-05-07 17:18 44.39680 -80.87373 25725 ft 404 kts 308°
2026-05-07 17:18 44.41602 -80.90266 26012 ft 406 kts 308°
2026-05-07 17:18 44.43526 -80.93166 26280 ft 408 kts 308°
2026-05-07 17:19 44.45464 -80.96094 26539 ft 410 kts 308°
2026-05-07 17:19 44.47406 -80.99028 26800 ft 412 kts 308°
2026-05-07 17:19 44.49363 -81.01985 27058 ft 414 kts 308°
2026-05-07 17:19 44.51323 -81.04945 27317 ft 415 kts 308°
2026-05-07 17:20 44.53291 -81.07920 27574 ft 417 kts 307°
2026-05-07 17:20 44.55264 -81.10906 27836 ft 418 kts 307°
2026-05-07 17:20 44.57244 -81.13905 28089 ft 420 kts 307°
2026-05-07 17:20 44.59226 -81.16919 28430 ft 419 kts 307°
2026-05-07 17:21 44.61202 -81.19926 28797 ft 418 kts 307°
2026-05-07 17:21 44.63173 -81.22928 29160 ft 418 kts 307°
2026-05-07 17:21 44.65139 -81.25923 29513 ft 417 kts 307°
2026-05-07 17:21 44.67101 -81.28914 29876 ft 417 kts 308°
2026-05-07 17:22 44.69067 -81.31921 30035 ft 419 kts 308°
2026-05-07 17:22 44.71046 -81.34949 30251 ft 420 kts 308°
2026-05-07 17:22 44.73021 -81.37972 30483 ft 420 kts 308°
2026-05-07 17:22 44.74995 -81.40998 30722 ft 420 kts 307°
2026-05-07 17:23 44.76967 -81.44027 30956 ft 420 kts 307°
2026-05-07 17:23 44.78939 -81.47060 31197 ft 420 kts 307°
2026-05-07 17:23 44.80890 -81.50055 31430 ft 420 kts 307°
2026-05-07 17:23 44.82864 -81.53087 31661 ft 420 kts 307°
2026-05-07 17:24 44.84837 -81.56118 31879 ft 420 kts 307°
2026-05-07 17:24 44.86809 -81.59157 31972 ft 419 kts 307°
2026-05-07 17:24 44.90728 -81.65218 31986 ft 419 kts 308°
2026-05-07 17:25 44.94650 -81.71297 31984 ft 419 kts 308°
2026-05-07 17:25 44.98572 -81.77402 31981 ft 419 kts 307°
2026-05-07 17:26 45.02490 -81.83502 31976 ft 419 kts 307°
2026-05-07 17:26 45.06407 -81.89600 31987 ft 419 kts 308°
2026-05-07 17:27 45.10305 -81.95684 31997 ft 419 kts 308°
2026-05-07 17:27 45.14221 -82.01814 31985 ft 420 kts 308°
2026-05-07 17:28 45.18139 -82.07960 31981 ft 420 kts 308°
2026-05-07 17:28 45.22060 -82.14110 31982 ft 421 kts 308°
2026-05-07 17:29 45.25979 -82.20284 31983 ft 421 kts 308°
2026-05-07 17:29 45.29889 -82.26472 32000 ft 421 kts 308°
2026-05-07 17:30 45.33809 -82.32675 32001 ft 422 kts 308°
2026-05-07 17:30 45.37728 -82.38898 31982 ft 423 kts 308°
2026-05-07 17:31 45.41589 -82.45220 31980 ft 422 kts 306°
2026-05-07 17:31 45.45228 -82.51778 31985 ft 422 kts 304°
2026-05-07 17:32 45.48797 -82.58420 31986 ft 422 kts 304°
2026-05-07 17:32 45.52401 -82.65050 31983 ft 423 kts 305°
2026-05-07 17:33 45.56038 -82.71654 31986 ft 424 kts 305°
2026-05-07 17:33 45.59656 -82.78231 31981 ft 424 kts 305°
2026-05-07 17:34 45.63288 -82.84879 31972 ft 425 kts 305°
2026-05-07 17:34 45.66914 -82.91548 31970 ft 425 kts 305°
2026-05-07 17:35 45.70534 -82.98226 31971 ft 425 kts 305°
2026-05-07 17:35 45.74167 -83.04920 31965 ft 426 kts 305°
2026-05-07 17:36 45.77801 -83.11614 31971 ft 426 kts 305°
2026-05-07 17:36 45.81427 -83.18332 31967 ft 426 kts 305°
2026-05-07 17:37 45.85053 -83.25066 31962 ft 427 kts 305°
2026-05-07 17:37 45.88678 -83.31808 31965 ft 427 kts 305°
2026-05-07 17:38 45.92299 -83.38568 31954 ft 427 kts 305°
2026-05-07 17:38 45.95909 -83.45352 31957 ft 427 kts 305°
2026-05-07 17:39 45.99496 -83.52095 31974 ft 427 kts 305°
2026-05-07 17:39 46.03112 -83.58889 31964 ft 428 kts 305°
2026-05-07 17:40 46.06725 -83.65696 31950 ft 428 kts 305°
2026-05-07 17:40 46.10337 -83.72513 31952 ft 428 kts 305°
2026-05-07 17:41 46.13951 -83.79339 31956 ft 428 kts 305°
2026-05-07 17:41 46.17555 -83.86179 31949 ft 428 kts 305°
2026-05-07 17:42 46.21156 -83.93037 31960 ft 428 kts 305°
2026-05-07 17:42 46.24757 -83.99896 31954 ft 429 kts 305°
2026-05-07 17:43 46.28333 -84.06730 31948 ft 429 kts 305°
2026-05-07 17:43 46.31929 -84.13623 31945 ft 429 kts 305°
2026-05-07 17:44 46.35518 -84.20521 31949 ft 429 kts 305°
2026-05-07 17:44 46.39105 -84.27433 31950 ft 429 kts 305°
2026-05-07 17:45 46.42447 -84.34576 31937 ft 428 kts 298°
2026-05-07 17:45 46.45396 -84.42066 31952 ft 428 kts 298°
2026-05-07 17:46 46.48337 -84.49576 31947 ft 428 kts 298°
2026-05-07 17:46 46.51280 -84.57085 31946 ft 428 kts 298°
2026-05-07 17:47 46.54220 -84.64607 31946 ft 428 kts 298°
2026-05-07 17:47 46.57151 -84.72135 31947 ft 428 kts 298°
2026-05-07 17:48 46.60084 -84.79669 31951 ft 428 kts 298°
2026-05-07 17:48 46.63005 -84.87209 31949 ft 428 kts 298°
2026-05-07 17:49 46.65925 -84.94757 31947 ft 428 kts 298°
2026-05-07 17:49 46.68822 -85.02257 31945 ft 428 kts 298°
2026-05-07 17:50 46.71724 -85.09821 31942 ft 428 kts 298°
2026-05-07 17:50 46.74640 -85.17441 31940 ft 427 kts 298°
2026-05-07 17:51 46.77525 -85.24967 31942 ft 427 kts 298°
2026-05-07 17:51 46.80413 -85.32540 31940 ft 427 kts 298°
2026-05-07 17:52 46.83287 -85.40127 31940 ft 427 kts 298°
2026-05-07 17:52 46.86163 -85.47721 31937 ft 427 kts 298°
2026-05-07 17:53 46.89041 -85.55307 31949 ft 427 kts 298°
2026-05-07 17:53 46.91910 -85.62910 31942 ft 427 kts 297°
2026-05-07 17:54 46.94767 -85.70528 31939 ft 427 kts 297°
2026-05-07 17:54 46.97622 -85.78152 31937 ft 427 kts 297°
2026-05-07 17:55 47.00475 -85.85777 31935 ft 427 kts 297°
2026-05-07 17:55 47.03317 -85.93415 31930 ft 427 kts 297°
2026-05-07 17:56 47.06157 -86.01052 31931 ft 427 kts 297°
2026-05-07 17:56 47.08513 -86.07407 31929 ft 427 kts 297°
2026-05-07 17:57 47.11342 -86.15051 31929 ft 426 kts 297°
2026-05-07 17:57 47.14626 -86.23964 31938 ft 426 kts 297°
2026-05-07 17:58 47.16981 -86.30394 31931 ft 426 kts 297°
2026-05-07 17:58 47.19795 -86.38068 31929 ft 426 kts 297°
2026-05-07 17:59 47.22589 -86.45685 31928 ft 426 kts 297°
2026-05-07 17:59 47.25389 -86.53367 31924 ft 426 kts 297°
2026-05-07 18:00 47.28182 -86.61057 31923 ft 425 kts 297°
2026-05-07 18:00 47.30965 -86.68747 31915 ft 425 kts 297°
2026-05-07 18:01 47.33742 -86.76436 31922 ft 425 kts 297°
2026-05-07 18:01 47.36515 -86.84130 31931 ft 425 kts 297°
2026-05-07 18:02 47.40656 -86.95686 31926 ft 424 kts 296°
2026-05-07 18:03 47.43407 -87.03399 31919 ft 424 kts 296°
2026-05-07 18:03 47.46162 -87.11115 31919 ft 425 kts 296°
2026-05-07 18:04 47.48911 -87.18840 31929 ft 424 kts 296°
2026-05-07 18:04 47.51643 -87.26558 31929 ft 423 kts 296°
2026-05-07 18:05 47.54369 -87.34264 31927 ft 423 kts 296°
2026-05-07 18:05 47.57072 -87.41929 31936 ft 423 kts 296°
2026-05-07 18:06 47.59794 -87.49655 31921 ft 423 kts 296°
2026-05-07 18:06 47.62501 -87.57389 31921 ft 422 kts 296°
2026-05-07 18:07 47.65198 -87.65122 31921 ft 422 kts 296°
2026-05-07 18:07 47.67896 -87.72860 31921 ft 422 kts 296°
2026-05-07 18:08 47.70585 -87.80606 31915 ft 422 kts 296°
2026-05-07 18:08 47.73265 -87.88358 31912 ft 422 kts 296°
2026-05-07 18:09 47.75944 -87.96126 31912 ft 422 kts 296°
2026-05-07 18:09 47.78613 -88.03887 31927 ft 421 kts 296°
2026-05-07 18:10 47.81274 -88.11652 31915 ft 421 kts 296°
2026-05-07 18:10 47.83920 -88.19371 31909 ft 422 kts 296°
2026-05-07 18:11 47.86585 -88.27146 31906 ft 422 kts 296°
2026-05-07 18:11 47.89232 -88.34940 31900 ft 421 kts 296°
2026-05-07 18:12 47.91867 -88.42737 31904 ft 421 kts 296°
2026-05-07 18:12 47.94500 -88.50536 31904 ft 421 kts 295°
2026-05-07 18:13 47.97128 -88.58331 31904 ft 421 kts 295°
2026-05-07 18:13 47.99752 -88.66134 31902 ft 420 kts 295°
2026-05-07 18:14 48.02374 -88.73946 31903 ft 421 kts 296°
2026-05-07 18:14 48.04989 -88.81776 31897 ft 421 kts 295°
2026-05-07 18:15 48.07592 -88.89601 31896 ft 420 kts 295°
2026-05-07 18:15 48.10176 -88.97392 31896 ft 420 kts 295°
2026-05-07 18:16 48.12769 -89.05230 31898 ft 420 kts 295°
2026-05-07 18:16 48.15378 -89.13131 31887 ft 420 kts 295°
2026-05-07 18:17 48.17960 -89.20988 31887 ft 420 kts 295°
2026-05-07 18:17 48.20513 -89.28798 31889 ft 420 kts 295°
2026-05-07 18:18 48.23094 -89.36705 31898 ft 420 kts 295°
2026-05-07 18:18 48.25634 -89.44534 31881 ft 420 kts 295°
2026-05-07 18:19 48.28049 -89.52529 31882 ft 421 kts 293°
2026-05-07 18:19 48.30358 -89.60608 31884 ft 421 kts 292°
2026-05-07 18:20 48.32664 -89.68701 31889 ft 421 kts 293°
2026-05-07 18:20 48.34989 -89.76785 31892 ft 421 kts 293°
2026-05-07 18:21 48.37317 -89.84871 31898 ft 422 kts 293°
2026-05-07 18:21 48.39645 -89.92967 31902 ft 422 kts 293°
2026-05-07 18:22 48.41968 -90.01070 31891 ft 422 kts 293°
2026-05-07 18:22 48.44277 -90.09181 31903 ft 422 kts 293°
2026-05-07 18:23 48.46586 -90.17326 31886 ft 423 kts 293°
2026-05-07 18:23 48.48891 -90.25490 31894 ft 424 kts 293°
2026-05-07 18:24 48.51199 -90.33669 31888 ft 424 kts 293°
2026-05-07 18:24 48.53500 -90.41873 31900 ft 424 kts 293°
2026-05-07 18:25 48.55801 -90.50078 31896 ft 424 kts 294°
2026-05-07 18:25 48.58103 -90.58287 31901 ft 424 kts 294°
2026-05-07 18:26 48.60385 -90.66495 31903 ft 424 kts 293°
2026-05-07 18:26 48.62653 -90.74716 31907 ft 424 kts 293°
2026-05-07 18:27 48.64923 -90.82932 31910 ft 424 kts 293°
2026-05-07 18:27 48.67192 -90.91167 31897 ft 424 kts 294°
2026-05-07 18:28 48.69443 -90.99365 31900 ft 425 kts 294°
2026-05-07 18:28 48.71706 -91.07629 31905 ft 425 kts 294°
2026-05-07 18:29 48.73953 -91.15894 31908 ft 425 kts 294°
2026-05-07 18:29 48.76197 -91.24177 31909 ft 425 kts 294°
2026-05-07 18:30 48.78439 -91.32464 31891 ft 425 kts 294°
2026-05-07 18:30 48.80676 -91.40749 31912 ft 424 kts 294°
2026-05-07 18:31 48.82897 -91.49028 31918 ft 423 kts 294°
2026-05-07 18:31 48.85109 -91.57300 31923 ft 423 kts 294°
2026-05-07 18:32 48.87316 -91.65581 31922 ft 423 kts 294°
2026-05-07 18:32 48.89510 -91.73859 31923 ft 423 kts 294°
2026-05-07 18:33 48.91696 -91.82145 31918 ft 422 kts 294°
2026-05-07 18:33 48.93882 -91.90413 31918 ft 421 kts 294°
2026-05-07 18:34 48.96048 -91.98620 31926 ft 420 kts 294°
2026-05-07 18:34 48.98209 -92.06881 31923 ft 420 kts 294°
2026-05-07 18:35 49.00364 -92.15149 31922 ft 420 kts 294°
2026-05-07 18:35 49.02514 -92.23422 31901 ft 419 kts 295°